Location: Unspecified
(38.7273°N, 77.0677°W)
Time: 02:42:47
(UTC-04:00)

CAS-4B - Pass Details

Date: 30 September 2021
Orbit: 529 x 541 km, 43.0° (Epoch: 18 October)

Event Time Altitude Azimuth Distance (km) Brightness Sun altitude
Exits shadow 05:16:10 47° 333° (NNW) 700 ? -21.6°
Maximum altitude 05:16:51 55° 13° (NNE) 638 ? -21.5°
Drops below altitude 10° 05:20:49 10° 91° (E) 1,767 ? -20.7°
Sets 05:23:05 0° 96° (E) 2,656 ? -20.3°
